Hourly Data Report for October 03, 2016

All times are specified in Local Standard Time (LST). Add 1 hour to adjust for Daylight Saving Time where and when it is observed.

POND INLET A
NUNAVUT

72°41'22.000" N
77°58'08.000" W
61.60 m
2403206
71095
YIO

Download Data

Hourly Data (October 2016)
Hourly Data Report for October 3, 2016
Temp Definition
°C
Dew Point Temp Definition
°C
Rel Hum Definition
%
Wind Dir Definition
10's deg

Wind Spd Definition
km/h
Visibility Definition
km
Stn Press Definition
kPa
Hmdx Definition


Wind Chill Definition


Weather Definition


TIME
00:00 Legend Double Dagger -2.3 -2.7 97 22 35 2.0 99.44   -10 Snow
01:00 Legend Double Dagger -2.4 -2.8 97 21 30 2.0 99.42   -10 Snow
02:00 Legend Double Dagger -2.4 -2.8 97 21 37 1.6 99.41   -10 Snow
03:00 Legend Double Dagger -2.4 -2.8 97 21 37 1.6 99.41   -10 Snow
04:00 Legend Double Dagger -2.5 -3.1 96 21 34 2.0 99.41   -10 Snow
05:00 Legend Double Dagger -2.5 -3.3 94 21 34 8.1 99.39   -10 Snow
06:00 Legend Double Dagger -2.3 -3.6 91 22 37 4.8 99.36   -10 Snow
07:00 Legend Double Dagger -2.2 -3.6 90 22 35 8.1 99.35   -10 Snow
08:00 Legend Double Dagger -2.3 -4.0 88 21 21 16.1 99.39   -8 LegendNANA
09:00 Legend Double Dagger -2.2 -3.6 90 21 32 4.8 99.39   -10 Snow
10:00 Legend Double Dagger -2.4 -4.6 85 26 41 14.5 99.38   -11 Snow
11:00 Legend Double Dagger -2.9 -6.0 79 26 34 16.1 99.40   -11 LegendNANA
12:00 Legend Double Dagger -3.0 -6.9 75 26 34 16.1 99.42   -11 LegendNANA
13:00 Legend Double Dagger -3.2 -7.3 73 25 30 16.1 99.45   -11 LegendNANA
14:00 Legend Double Dagger -3.1 -7.6 71 26 26 16.1 99.46   -10 LegendNANA
15:00 Legend Double Dagger -2.9 -7.3 72 27 24 16.1 99.48   -10 LegendNANA
16:00 Legend Double Dagger -2.9 -5.8 81 26 28 16.1 99.47   -10 Snow
17:00 Legend Double Dagger -2.9 -6.0 80 26 22 16.1 99.49   -9 Snow
18:00 Legend Double Dagger -3.3 -5.3 86 27 22 8.1 99.50   -10 Snow
19:00 Legend Double Dagger -3.3 -6.1 81 26 17 16.1 99.53   -9 Snow
20:00 Legend Double Dagger -3.7 -4.8 92 27 15 4.8 99.52   -9 Snow
21:00 Legend Double Dagger -3.6 -4.0 97 26 9 12.9 99.55   -7 Snow
22:00 Legend Double Dagger -3.9 -4.5 96 LegendMM 4 16.1 99.56   -6 Snow
23:00 Legend Double Dagger -3.6 -5.3 88   0 16.1 99.53     Snow

Notes on Data Quality.

Legend

  • E = Estimated
  • M = Missing
  • NA = Not Available
  • ‡ = Partner data that is not subject to review by the National Climate Archives
Date modified: